Location: Erdweis
(48.5167°N, 15.3500°E)
Time: 01:19:04
(UTC+00:00)

USA 238 - Pass Details

Date: 18 September 2020
Orbit: 1006 x 1206 km, 63.4° (Epoch: 28 October)

Event Time Altitude Azimuth Distance (km) Brightness Sun altitude
Rises 19:33:07 0° 317° (NW) 3,948 8.0 -24.1°
Reaches altitude 10° 19:35:47 10° 314° (NW) 3,015 7.1 -24.5°
Maximum altitude 19:42:51 60° 237° (WSW) 1,321 4.2 -25.4°
Enters shadow 19:45:45 37° 176° (S) 1,741 4.5 -25.8°
